Weather past 2 weeks in Amsterdam Island, French Southern Territories

Now
61 °F

Cool.


Feels Like: 61 °F
Forecast: 60 / 62 °F
Wind: 10 mph from Northwest

Location: Martin De Vivies Ile Amsterdam

Current Time: May 27, 2015 at 5:57:35 PM

Latest Report: May 27, 2015 at 5:00 PM


Visibility: N/A

Pressure: 30.05 "Hg

Humidity: 92%

Dew point: 58 °F

Location of Amsterdam IslandLocation

Historic Weather in Amsterdam Island — Graph

°F

Amsterdam Island temperature yesterday

Maximum temperature yesterday: 62 °F (at 11:00 AM)
Minimum temperature yesterday: 60 °F (at 2:00 AM)
Average temperature yesterday: 61 °F

Past Weeks' High & Low Weather Summary

 TemperatureHumidityPressure
High64 °F (May 23, 11:00 AM)97% (May 27, 4:00 AM)30.65 "Hg (May 27, 4:00 AM)
Low45 °F (May 13, 12:00 AM)60% (May 20, 3:00 PM)29.79 "Hg (May 12, 4:00 PM)
Average56 °F79%30.31 "Hg
* Reported May 12 4:00 PM — May 27 4:00 PM, Amsterdam Island, Weather by CustomWeather, © 2015

Note: Actual official high and low records may vary slightly from our data, if they occured in-between our weather recording intervals... More about our weather records

Advertising

Amsterdam Island weather history for previous 24 hours

 ConditionsComfort  
Time TempWeatherWind HumidityBarometerVisibility
4:00 PM
Wed, May 27
62 °FMild.13 mph90%30.05 "HgN/A
3:00 PM63 °FMild.12 mph91%30.04 "HgN/A
2:00 PM64 °FMild.13 mph89%30.03 "HgN/A
1:00 PM63 °FMild.13 mph91%30.03 "HgN/A
12:00 PM63 °FMild.13 mph92%30.04 "HgN/A
11:00 AM64 °FMild.10 mph93%30.06 "HgN/A
10:00 AM64 °FMild.10 mph96%30.06 "HgN/A
9:00 AM62 °FCool.8 mph97%30.06 "HgN/A
8:00 AM62 °FCool.9 mph97%30.05 "HgN/A
7:00 AM61 °FCool.10 mph97%30.04 "HgN/A
6:00 AM60 °FCool.10 mph97%30.03 "HgN/A
5:00 AM61 °FCool.10 mph97%30.02 "HgN/A
4:00 AM61 °FCool.12 mph97%30.01 "HgN/A
3:00 AM61 °FCool.8 mph96%30.01 "HgN/A
2:00 AM61 °FCool.8 mph96%30.02 "HgN/A
1:00 AM61 °FCool.6 mph96%30.02 "HgN/A
12:00 AM61 °FCool.5 mph96%30.03 "HgN/A
11:00 PM
Tue, May 26
61 °FCool.15 mph96%30.04 "HgN/A
10:00 PM61 °FCool.13 mph96%30.05 "HgN/A
9:00 PM61 °FCool.15 mph96%30.05 "HgN/A
8:00 PM61 °FCool.18 mph96%30.06 "HgN/A
7:00 PM62 °FCool.13 mph96%30.05 "HgN/A
6:00 PM61 °FCool.18 mph95%30.06 "HgN/A
5:00 PM61 °FCool.24 mph95%30.05 "HgN/A
Weather by CustomWeather, © 2015

See weather overviewHow to use our weather pages